Regional Weather Roundup
Issued by NWS Newport/Morehead, NC

Current Version | Previous Version | Graphics & Text | Print | Product List | Glossary On
Versions: 1 2 3 4 5 6 7 8 9 10 11 12 13 14 15 16 17 18 19 20 21 22 23 24 25 26 27 28 29 30 31 32 33 34 35 36 37 38 39 40 41 42 43 44 45 46 47 48 49 50
000 ASUS42 KMHX 240513 RWRMHX WEATHER ROUNDUP FOR EASTERN NORTH CAROLINA NATIONAL WEATHER SERVICE NEWPORT/MOREHEAD CITY NC 100 AM EDT SAT JUN 24 2017 NOTE: "FAIR" INDICATES FEW OR NO CLOUDS BELOW 12,000 FEET WITH NO SIGNIFICANT WEATHER AND/OR OBSTRUCTIONS TO VISIBILITY NCZ015>017-031-032-045>047-102-103-240600- NORTH COAST CITY SKY/WX TMP DP RH WIND PRES REMARKS EDENTON CLEAR 81 72 74 SW17 29.88F ELIZABETH CITY CLEAR 79 72 79 S20G26 29.86F KITTY HAWK CLEAR 79 71 75 SW10G17 29.89S MANTEO CLEAR 79 73 81 SW18G24 29.91F $$ NCZ045>047-081-094-103-104-240600- CENTRAL COAST CITY SKY/WX TMP DP RH WIND PRES REMARKS FRISCO MOCLDY 80 75 84 SW15G28 29.95S $$ NCZ095-097-098-100-101-240600- SOUTHERN COAST CITY SKY/WX TMP DP RH WIND PRES REMARKS BEAUFORT PTCLDY 80 78 94 SW18 29.97R CEDAR ISLAND NOT AVBL JACKSONVILLE CLEAR 79 73 82 SW12G18 29.95S PINEY ISLAND PTCLDY N/A N/A N/A SW22G31 29.95F WILMINGTON CLEAR 79 74 84 SW22G31 29.97S $$ NCZ011>013-027>030-043-044-078>080-089-090>093-098-240600- COASTAL PLAIN CITY SKY/WX TMP DP RH WIND PRES REMARKS AHOSKIE N/A 78 74 87 S10G18 29.86S CLINTON CLEAR 78 74 88 SW7 29.93S ELIZABETHTOWN NOT AVBL GOLDSBORO CLEAR 78 77 96 S13 29.90R GREENVILLE CLEAR 79 70 73 SW15G21 29.92S HAVELOCK NOT AVBL KENANSVILLE CLEAR 77 72 83 SW3 29.93F KINSTON CLEAR 78 70 76 S18G25 29.92F NEW BERN CLEAR 78 74 87 SW12 29.95S RICHLANDS CLEAR 77 71 82 S13 29.95F ROCKY MOUNT MOCLDY 79 76 90 S14G21 29.87F WASHINGTON CLEAR N/A N/A N/A S10G17 29.91F WHITEVILLE CLEAR 78 71 80 S10 29.96S $$ AMZ130-135-150-152-154-156-158-170-250-252-270-ANZ085-086-088-633-658-670-240600- MARINE OBSERVATIONS STATION/POSITION TIME TEMP WIND PRES WAVE SWELL AIR SEA DIR/SP/G HT/PER HT/PER (UTC) (F) (DEG/KT/KT) (MB) (FT/S) (FT/S) CHESAPEAKE LIGHT NOT AVBL 64 E VA BEACH 0450 74 71 210/ 21/ 25 1011.1 6/ 6 DUCK 0448 80 62 200/ 20/ 27 1011.1 2 E DUCK NOT AVBL OREGON INLET 0448 210/ 27/ 31 N/A 13E OREGON INLT 0448 71 N/A 5/ 5 2/ 9 HATTERAS CG 0448 79 79 220/ 12/ 18 1013.9 DIAMOND BUOY 0450 81 80 220/ 23/ 27 1013.9 7/ 6 2/10 CAPE LOOKOUT 0500 80 220/ 15/ 23 1014.6 BEAUFORT LAB 0448 80 78 220/ 11/ 19 1014.2 30 SE NEW RVR IN 0408 80 81 220/ 19/ 23 1015.0 30 SE NEW RVR IN 0443 81 N/A 6/ 6 27 SE WRIGHTSVLE 0408 79 80 200/ 19/ 27 1014.4 5 SE WRIGHTSVLE 0408 80 79 200/ 14/ 25 1015.2 225 S CAPE HAT 0450 81 81 200/ 16/ 19 1018.7 4/ 9 3/ 9 41 SE CHARLESTON 0450 81 81 200/ 19/ 23 1016.3 5/ 5 2/10 $$

USA.gov is the U.S. government's official web portal to all federal, state and local government web resources and services.